TimeCDT,TemperatureF,Dew PointF,Humidity,Sea Level PressureIn,VisibilityMPH,Wind Direction,Wind SpeedMPH,Gust SpeedMPH,PrecipitationIn,Events,Conditions,WindDirDegrees,DateUTC
12:56 AM,10.9,3.9,73,30.42,10.0,NNW,12.7,-,N/A,,Clear,330,2013-03-20 05:56:00
1:56 AM,10.9,3.0,70,30.43,10.0,NNW,16.1,25.3,N/A,,Clear,330,2013-03-20 06:56:00
2:56 AM,10.0,3.9,76,30.43,10.0,NW,12.7,-,N/A,,Clear,320,2013-03-20 07:56:00
3:56 AM,9.0,3.0,77,30.43,10.0,NW,11.5,-,N/A,,Clear,320,2013-03-20 08:56:00
4:56 AM,8.1,3.0,80,30.43,10.0,NW,12.7,-,N/A,,Clear,310,2013-03-20 09:56:00
5:56 AM,8.1,3.0,80,30.44,10.0,NW,10.4,-,N/A,,Clear,310,2013-03-20 10:56:00
6:56 AM,7.0,1.9,80,30.44,10.0,NW,9.2,-,N/A,,Clear,320,2013-03-20 11:56:00
7:56 AM,7.0,1.9,80,30.45,10.0,WNW,8.1,-,N/A,,Clear,300,2013-03-20 12:56:00
8:56 AM,10.9,3.0,70,30.43,10.0,NW,10.4,-,N/A,,Clear,320,2013-03-20 13:56:00
9:56 AM,14.0,3.9,64,30.43,10.0,NW,13.8,-,N/A,,Partly Cloudy,320,2013-03-20 14:56:00
10:56 AM,17.1,3.9,56,30.43,10.0,NNW,16.1,24.2,N/A,,Partly Cloudy,330,2013-03-20 15:56:00
11:56 AM,19.9,3.9,50,30.40,10.0,NNW,13.8,21.9,N/A,,Partly Cloudy,330,2013-03-20 16:56:00
12:56 PM,21.9,5.0,48,30.38,10.0,NW,15.0,21.9,N/A,,Partly Cloudy,320,2013-03-20 17:56:00
1:56 PM,23.0,5.0,46,30.35,10.0,NNW,13.8,23.0,N/A,,Partly Cloudy,340,2013-03-20 18:56:00
2:56 PM,24.1,7.0,48,30.31,10.0,NNW,12.7,-,N/A,,Partly Cloudy,330,2013-03-20 19:56:00
3:56 PM,25.0,6.1,45,30.29,10.0,NW,13.8,21.9,N/A,,Partly Cloudy,310,2013-03-20 20:56:00
4:56 PM,26.1,6.1,43,30.27,10.0,NNW,11.5,19.6,N/A,,Partly Cloudy,340,2013-03-20 21:56:00
5:56 PM,25.0,6.1,45,30.25,10.0,NNW,11.5,18.4,N/A,,Clear,330,2013-03-20 22:56:00
6:56 PM,23.0,9.0,55,30.24,10.0,NNE,11.5,-,N/A,,Clear,20,2013-03-20 23:56:00
7:56 PM,19.0,7.0,59,30.24,10.0,NNE,9.2,-,N/A,,Clear,30,2013-03-21 00:56:00
8:56 PM,16.0,7.0,68,30.24,10.0,NNE,8.1,-,N/A,,Clear,30,2013-03-21 01:56:00
9:56 PM,15.1,8.1,74,30.23,10.0,NNE,6.9,-,N/A,,Clear,30,2013-03-21 02:56:00
10:56 PM,14.0,7.0,74,30.21,10.0,NE,9.2,-,N/A,,Clear,40,2013-03-21 03:56:00
11:56 PM,12.9,6.1,74,30.19,10.0,NE,11.5,-,N/A,,Clear,50,2013-03-21 04:56:00